User: anonymous   Login
Location: Iola
(37.9240°N, 95.4000°W)
Time: 22:20:14
(UTC-06:00)
Language:

Meteor 2-10 Rocket - Orbit

View from above orbital plane
View from above orbital plane
View from above satellite
View from above satellite

Ground track
Ground track

The orbit data is extracted from the following two-line orbital elements,

1 14453U 83109B   14350.87023486  .00000196  00000-0  74627-4 0  3056
2 14453 081.1678 305.0212 0105121 185.0650 205.6754 14.24549636617498
Epoch (UTC): 16 December 2014 20:53:08
Eccentricity: 0.0105121
inclination: 81.1678°
perigee height: 734 km
apogee height: 885 km
right ascension of ascending node: 305.0212°
argument of perigee: 185.0650°
revolutions per day: 14.24549636
mean anomaly at epoch: 205.6754°
orbit number at epoch: 61749

The dashed part of the orbit path shows where the satellite is in the earth's shadow,  

DLR